Location: ?????????
(44.2517°N, 135.2292°E)
Time: 04:07:45
(UTC+00:00)

Cosmos 2084 - Pass Details

Date: 19 May 2025
Orbit: 513 x 597 km, 62.8° (Epoch: 19 June)

Event Time Altitude Azimuth Distance (km) Brightness Sun altitude
Exits shadow 18:08:31 18° 215° (SW) 1,421 4.8 -12.2°
Maximum altitude 18:11:36 87° 128° (SE) 568 3.3 -11.8°
Drops below altitude 10° 18:15:44 10° 39° (NE) 1,832 7.5 -11.2°
Sets 18:17:55 0° 39° (NE) 2,714 8.9 -10.9°
